This is the latest recevied weather packets stored in our database for station/object SP5IZJ-2. If no packets are shown the sender has not sent any weather packets the latest 10 day(s).
| Time | Temp. | Humidity | Pressure | Rain* | Wind** | Luminosity | Snow |
|---|---|---|---|---|---|---|---|
| 1787559445 | 18.33° C | 69% | 1012.8 hPa | 0 mm | - | - | - |
| 1787558605 | 16.67° C | 70% | 1012.8 hPa | 0 mm | - | - | - |
| 1787558185 | 16.67° C | 70% | 1012.8 hPa | 0 mm | - | - | - |
| 1787557768 | 17.22° C | 70% | 1012.8 hPa | 0 mm | - | - | - |
| 1787557348 | 17.22° C | 69% | 1012.8 hPa | 0 mm | - | - | - |
| 1787556926 | 17.22° C | 70% | 1012.8 hPa | 0 mm | - | - | - |
| 1787556506 | 16.67° C | 71% | 1012.7 hPa | 0 mm | - | - | - |
| 1787554827 | 16.67° C | 72% | 1012.6 hPa | 0 mm | - | - | - |
| 1787554423 | 16.67° C | 72% | 1012.7 hPa | 0 mm | - | - | - |
| 1787553987 | 16.11° C | 75% | 1012.7 hPa | 0 mm | - | - | - |
| 1787553575 | 15.56° C | 76% | 1012.8 hPa | 0 mm | - | - | - |
| 1787552736 | 15° C | 77% | 1012.8 hPa | 0 mm | - | - | - |
| 1787551901 | 13.89° C | 79% | 1012.8 hPa | 0 mm | - | - | - |
| 1787551049 | 13.89° C | 82% | 1012.8 hPa | 0 mm | - | - | - |
| 1787550646 | 13.33° C | 82% | 1012.8 hPa | 0 mm | - | - | - |
| 1787550209 | 13.33° C | 82% | 1012.7 hPa | 0 mm | - | - | - |
| 1787549793 | 13.33° C | 83% | 1012.5 hPa | 0 mm | - | - | - |
| 1787549369 | 12.78° C | 83% | 1012.5 hPa | 0 mm | - | - | - |
| 1787548957 | 12.78° C | 84% | 1012.4 hPa | 0 mm | - | - | - |
| 1787548529 | 12.78° C | 84% | 1012.4 hPa | 0 mm | - | - | - |
| 1787547751 | 12.22° C | 84% | 1012.3 hPa | 0 mm | - | - | - |
| 1787547690 | 12.22° C | 84% | 1012.3 hPa | 0 mm | - | - | - |
| 1787547290 | 12.22° C | 85% | 1012.2 hPa | 0 mm | - | - | - |
| 1787546850 | 12.22° C | 85% | 1012.4 hPa | 0 mm | - | - | - |
| 1787546018 | 11.67° C | 85% | 1012.3 hPa | 0 mm | - | - | - |
* Rain latest hour (hover to see other rain measurements)
** Current wind speed in m/s (hover to see current wind gust speed)